Location: Isle of Man Observatory
(54.1776°N, 4.6264°W)
Time: 13:26:32
(UTC+01:00)

ISS - Visible Passes

Search period start: 23 March 2017 00:00
Search period end: 02 April 2017 01:00
Orbit: 399 x 409 km, 51.6° (Epoch: 23 March)

Date Brightness Start Highest point End Pass type
(mag) Time Alt. Az. Time Alt. Az. Time Alt. Az.
28 Mar -1.8 22:33:32 10° SSW 22:34:36 16° S 22:34:36 16° S visible
29 Mar -1.9 21:42:04 10° S 21:43:51 14° SE 21:45:02 12° ESE visible
29 Mar -1.7 23:16:38 10° SW 23:17:43 18° SW 23:17:43 18° SW visible
30 Mar -2.9 22:24:31 10° SW 22:27:26 30° SSE 22:27:55 29° SE visible
31 Mar -0.9 00:00:22 10° WSW 00:00:35 12° WSW 00:00:35 12° WSW visible
31 Mar -2.4 21:32:33 10° SSW 21:35:11 22° SSE 21:37:48 10° E visible
31 Mar -3.2 23:08:02 10° WSW 23:10:36 42° SSW 23:10:36 42° SSW visible
01 Apr -3.3 22:15:45 10° WSW 22:18:52 42° SSE 22:20:28 23° ESE visible
01 Apr -1.7 23:51:54 10° W 23:53:08 21° WSW 23:53:08 21° WSW visible
